Погода в Сизове

Россия / Волгоградская область     48°08′33″N   42°17′05″E
темп.,
°C
ветер,
м/с
пор.,
м/с
влажн.,
%
обл.,
%
осадки,
мм/ч
давл.,
гПа
погр.,
м
6 мая, чт
чт600:00+10ююв22586 0.0 101812
03:00+9юв226411 0.0 101810
06:00+9юв35675 0.0 101899
09:00+15юв574896 0.0 1018878
12:00+18ююв6740100 0.0 10161946
15:00+19ююв5739100 0.0 10152090
18:00+18ююв3553100 0.0 1014122
21:00+14ююв2362100 0.0 101420
7 мая, пт
пт700:00+13ююв3566100 0.0 101485
03:00+11ююв41169100 0.0 1014271
06:00+11ююв41075100 0.0 1015288
09:00+15ю5757100 0.0 1015614
12:00+18ююз3457100 0.0 10151192
15:00+19з235170 0.6 10151474
18:00+19з2354100 0.0 101596
21:00+14ссз357388 0.0 101792
8 мая, сб
сб800:00+14с2275100 0.0 101741
03:00+11св118584 0.0 101710
06:00+13юв227999 0.0 101646
09:00+19ю355780 0.0 1016653
12:00+21ю554692 0.0 10151482
15:00+22ю564498 0.0 10141666
18:00+21ю58556 0.0 1013392
21:00+16ю35715 0.0 101267
9 мая, вс
вс900:00+15ююв357354 0.0 101176
03:00+14ю3881100 0.0 1010156
06:00+14вюв3677100 0.0 1009216
09:00+16ю4659100 0.0 1009583
12:00+16ююз4467100 0.3 1009716
15:00+14юз1290100 1.8 1008200
18:00+8ссз101591100 1.1 1010505
21:00+5сз101590100 3.9 1013727
10 мая, пн
пн1000:00+5зсз101592100 0.5 1014850
03:00+5зсз91494100 1.0 1015900
06:00+6зсз91393100 0.6 1014858
09:00+6зсз71192100 0.9 1014536
12:00+8з5590100 0.0 1013587
15:00+8юз4590100 0.1 1014635
18:00+7ю4492100 0.1 1014521
21:00+7юв3695100 0.1 1014428